Regional Weather Roundup
Issued by NWS

Home | Current Version | Previous Version | Text Only | Print | Product List | Glossary Off
Versions: 1 2 3 4 5 6 7 8 9 10 11 12 13 14 15 16 17 18 19 20 21 22 23 24 25 26 27 28 29 30 31 32 33 34 35 36 37 38 39 40 41 42 43 44 45 46 47 48 49 50

000
ASUS43 KMKX 181520
RWRWI

WISCONSIN REGIONAL WEATHER ROUNDUP
NATIONAL WEATHER SERVICE MILWAUKEE/SULLIVAN WI
900 AM CST SAT NOV 18 2017

NOTE: "FAIR" INDICATES FEW OR NO CLOUDS BELOW 12,000 FEET WITH NO
SIGNIFICANT WEATHER AND/OR OBSTRUCTIONS TO VISIBILITY.

WIZ001-002-006>008-014>016-023>028-181600-
NORTHWEST WISCONSIN

CITY           SKY/WX    TMP DP  RH WIND       PRES   REMARKS
SUPERIOR ARPT  MOSUNNY   28  22  80 NW6       29.80R WCI  21
ASHLAND        CLOUDY    33  29  85 NW8       29.75R WCI  26
HAYWARD        CLOUDY    32  28  85 N6        29.74S WCI  26
SIREN          PTSUNNY   28  24  84 N8G17     29.79R WCI  20
CUMBERLAND     CLOUDY    30  28  93 N9        29.74S WCI  22
RICE LAKE      CLOUDY    33  30  91 NW8       29.76R WCI  25
CHETEK         CLOUDY    33  31  92 N7        29.74S WCI  27
LADYSMITH      CLOUDY    34  32  91 N13       29.72S WCI  25
EAU CLAIRE     CLOUDY    35  31  85 N10       29.73R WCI  27
MENOMONIE      CLOUDY    36  32  86 NW9       29.74S WCI  29
NEW RICHMOND   CLOUDY    31  28  90 N12       29.78R WCI  22
OSCEOLA        PTSUNNY   31  31 100 NW8       29.82R WCI  23
$$

WIZ003>005-009-010-017-018-181600-
NORTH CENTRAL WISCONSIN

CITY           SKY/WX    TMP DP  RH WIND       PRES   REMARKS
MANITOWISH WTR CLOUDY    32  32 100 N3        29.66F FOG
ARBOR VITAE    CLOUDY    34  32  94 N8        29.65F WCI  27
WOODRUFF       CLOUDY    34  32  94 N8        29.65F WCI  27
RHINELANDER    CLOUDY    32  32 100 VRB5      29.64S WCI  27
EAGLE RIVER    CLOUDY    32  32  99 N10       29.63S WCI  24
LAND O LAKES   CLOUDY    32  31  96 N8        29.66S WCI  25
PHILLIPS       CLOUDY    32  32 100 N7        29.67S WCI  26
TOMAHAWK       CLOUDY    32  31  97 NW7       29.66S WCI  26
MEDFORD        CLOUDY    33  32  96 N10       29.65S FOG     WCI  24
MERRILL        CLOUDY    34  33  94 N9        29.65S WCI  27
$$

WIZ029-030-035-036-043>047-181600-
CENTRAL WISCONSIN

CITY           SKY/WX    TMP DP  RH WIND       PRES   REMARKS
WAUSAU         CLOUDY    35  33  92 N7        29.62S WCI  29
MOSINEE        CLOUDY    34  34 100 N9        29.64F WCI  26
MARSHFIELD     CLOUDY    34  31  88 N9        29.65R WCI  27
STEVENS POINT  CLOUDY    34  34 100 N9        29.64S WCI  26
WAUPACA        CLOUDY    38  35  88 N9        29.62F WCI  32
WAUTOMA        CLOUDY    36  34  92 N8        29.63F WCI  30
WISC RAPIDS    CLOUDY    36  33  89 N13       29.66R WCI  27
CAMP DOUGLAS   CLOUDY    39  36  87 NW12      29.66F WCI  32
$$

WIZ011>013-019>022-031-037>040-048>050-181600-
NORTHEAST WISCONSIN

CITY           SKY/WX    TMP DP  RH WIND       PRES   REMARKS
ANTIGO         CLOUDY    33  32  97 N14G21    29.62S WCI  23
SHAWANO        CLOUDY    38  35  88 N5        29.62F WCI  35
OCONTO         CLOUDY    37  34  91 N8        29.61S WCI  30
STURGEON BAY   CLOUDY    38  36  92 N15       29.59R WCI  29
GREEN BAY      CLOUDY    38  36  92 N13       29.60F WCI  30
MANITOWOC      CLOUDY    37  35  92 N10       29.57F WCI  30
APPLETON       CLOUDY    36  36 100 N12       29.59S FOG     WCI  27
CLINTONVILLE   CLOUDY    37  34  87 N7        29.62F WCI  32
OSHKOSH        CLOUDY    36  34  92 NW14      29.60S WCI  27
$$

WIZ032>034-041-042-053>061-181600-
SOUTHWEST WISCONSIN

CITY           SKY/WX    TMP DP  RH WIND       PRES   REMARKS
LA CROSSE      CLOUDY    37  34  89 N17       29.69S WCI  27
SPARTA         CLOUDY    34  33  96 N8        29.68F WCI  27
VIROQUA        CLOUDY    34  34 100 N10       29.63F WCI  26
BOSCOBEL       CLOUDY    38  35  89 N5        29.64F WCI  34
PRAIRIE DU CHI CLOUDY    37  34  89 NW12G18   29.64S WCI  30
PLATTEVILLE    CLOUDY    36  36 100 N16       29.60S WCI  27
$$

WIZ056-057-062-063-064-067-068-181600-
SOUTH CENTRAL WISCONSIN

CITY           SKY/WX    TMP DP  RH WIND       PRES   REMARKS
REEDSBURG      CLOUDY    35  35 100 N9        29.62F WCI  28
BARABOO/DELLS  CLOUDY    35  34  96 N9        29.61F FOG     WCI  28
LONE ROCK      CLOUDY    37  35  92 N9        29.62F WCI  30
MINERAL POINT  LGT RAIN  36  36 100 N13G18    29.59F WCI  27
MADISON        LGT RAIN  34  33  96 N13G21    29.60S WCI  25
MIDDLETON      CLOUDY    36  36 100 N12       29.60F WCI  27
WATERTOWN      MIX PCPN  32  32 100 N6        29.58S WCI  27
MONROE         MIX PCPN  32  32 100 N14       29.58R WCI  22
JANESVILLE     LGT SNOW  36  36 100 N13       29.58R WCI  27
$$

WIZ051-052-058>065-066-070>072-181600-
SOUTHEAST WISCONSIN

CITY           SKY/WX    TMP DP  RH WIND       PRES   REMARKS
MILWAUKEE      LGT RAIN  38  36  92 N15G21    29.55S FOG     WCI  29
WAUKESHA       SNOW      30  30 100 CALM      29.58R VSB 1/2
MILWAUKEE/TIMM LGT SNOW  34  30  86 N9        29.57R WCI  26
RACINE         RAIN      37  35  92 N17G26    29.55S FOG     WCI  27
BURLINGTON     LGT SNOW  36  36 100 N10       29.55F WCI  28
KENOSHA        RAIN      38  35  89 N12G20    29.52F FOG     WCI  30
FOND DU LAC    CLOUDY    37  33  85 N14       29.59S WCI  28
SHEBOYGAN      CLOUDY    37  36  96 N8        29.56F WCI  31
WEST BEND      LGT SNOW  32  32 100 NW5       29.56F WCI  27
JUNEAU         LGT RAIN  33  33  96 N12G17    29.59S WCI  25
$$

LSZ147-162-181600-
LAKE SUPERIOR

STATION/POSITION TIME  TEMP    WIND        PRES    WAVE
                       AIR SEA DIR/SP/G            HT/PER
                 (UTC) (F)     (DEG/KT/KT) (MB)    (FT/S)
DEVILS ISLAND    1500   33     340/ 11/ 13 1008.0R
SAXON HARBOR     1440   37     340/ 13/ 15 1006.4S
$$

LMZ867-665-643>646-181600-
LAKE MICHIGAN

STATION/POSITION TIME  TEMP    WIND        PRES    WAVE
                       AIR SEA DIR/SP/G            HT/PER
                 (UTC) (F)     (DEG/KT/KT) (MB)    (FT/S)
N MID LAKE BUOY  1450   41 48   10/ 21/ 25 1001.3R   4/ 5
NORTHPORT PIER   1500   40     350/ 20/ 25 1001.7
SHEBOYGAN LAKESH 1500   38     350/ 17/ 20 1001.2F
PORT WASHINGTON  1440   36     340/  8/ 12 1002.7R
MILWAUKEE LAKESH 1450   37     340/ 10/ 13   N/A
S MID LAKE BUOY  1450   45 49   10/ 19/ 23  998.5F   3/ 4
KENOSHA   LAKESH 1500   39     350/ 16/ 22 1000.0
$$

TC  - TEMPERATURE IN CELSIUS
VSB - VISIBILITY IN STATUTE MILES
WCI - WIND CHILL INDEX
HX  - HEAT INDEX




USA.gov is the U.S. government's official web portal to all federal, state and local government web resources and services.